Observations for Trim Market St
| Time | AQI | Temp °C | Hum % | Pres Pa | CO μg/m³ | H₂S μg/m³ | NO μg/m³ | NO₂ μg/m³ | O₃ μg/m³ | SO₂ μg/m³ | PM1 μg/m³ | PM2.5 μg/m³ | PM10 μg/m³ |
|---|---|---|---|---|---|---|---|---|---|---|---|---|---|
| Saturday 22 August 2026 | |||||||||||||
| 10:30 | 2 | 25.1 | 40 | 65,602 | 0.14 | 0 | 1.4 | 11.88 | 68.61 | 0 | 0 | 2.88 | 3.17 |
| 10:27 | 2 | 25.1 | 40 | 65,607 | 0.11 | 0 | 1.53 | 10.46 | 70.62 | 0 | 0 | 3.39 | 3.73 |
| 10:26 | 2 | 25.1 | 41 | 65,574 | 0.35 | 0 | 1.49 | 11.05 | 54.72 | 0 | 0.71 | 3.91 | 5.12 |
| 10:25 | 2 | 25.1 | 41 | 65,558 | 1.27 | 0 | 1.51 | 12.47 | 69 | 0 | 0 | 2.31 | 2.54 |
| 10:24 | 2 | 25 | 42 | 65,534 | 0.11 | 0 | 1.55 | 12.73 | 55.28 | 0 | 0 | 3.34 | 3.67 |
| 10:23 | 2 | 25 | 42 | 65,536 | 0.12 | 0 | 1.64 | 6.98 | 68.05 | 0 | 0 | 2.77 | 3.05 |
| 10:21 | 2 | 24.8 | 42 | 65,495 | 0.21 | 0 | 1.64 | 8.26 | 61.29 | 0 | 0 | 3.31 | 3.64 |
| 10:19 | 2 | 24.5 | 42 | 65,468 | 0.4 | 0 | 1.64 | 14.86 | 58.65 | 0 | 0.71 | 3.3 | 4.37 |
| 10:17 | 2 | 24.2 | 43 | 65,454 | 0.18 | 0 | 1.6 | 8.89 | 59.83 | 0 | 0.71 | 3.27 | 3.59 |
| 10:15 | 2 | 24 | 44 | 65,386 | 0.16 | 0 | 1.69 | 7.77 | 60.08 | 0 | 0 | 3.26 | 3.58 |
| 10:14 | 2 | 24 | 44 | 65,402 | 0.19 | 0 | 1.63 | 12.83 | 58.39 | 0 | 0.71 | 3.78 | 4.16 |
| 10:11 | 2 | 24 | 44 | 65,412 | 0.29 | 0 | 1.62 | 11.5 | 56.06 | 0 | 1.43 | 4.81 | 5.18 |
| 10:10 | 2 | 23.9 | 44 | 65,402 | 0.36 | 0 | 1.61 | 11.77 | 53.26 | 0 | 0.71 | 3.75 | 4.13 |
| 10:07 | 2 | 23.9 | 45 | 65,309 | 0.31 | 0 | 1.93 | 10.47 | 58.28 | 0 | 0.71 | 3.72 | 4.09 |
| 10:02 | 2 | 23.6 | 46 | 65,147 | 0.35 | 0 | 1.72 | 11.88 | 55.08 | 0 | 0.71 | 3.67 | 3.68 |
| 09:56 | 2 | 23.1 | 47 | 64,878 | 0.28 | 0 | 1.77 | 12.09 | 57.29 | 0 | 0.71 | 3.1 | 3.71 |
| 09:55 | 2 | 23 | 47 | 64,795 | 0.25 | 0 | 1.78 | 11.57 | 58.76 | 0 | 0 | 2.57 | 2.83 |
| 09:54 | 2 | 22.9 | 48 | 64,746 | 0.38 | 0 | 1.79 | 7.81 | 44.44 | 0 | 0 | 3.07 | 3.38 |
| 09:53 | 2 | 22.9 | 48 | 64,615 | 0.61 | 0 | 1.78 | 12.03 | 47.76 | 0 | 0.71 | 3.57 | 3.74 |
| 09:52 | 2 | 22.8 | 48 | 64,574 | 1.14 | 0 | 1.78 | 14.11 | 45.45 | 0 | 1.43 | 4.09 | 4.5 |